When you browse on this site, cookies collect data to enhance your experience and personalize the content and advertising you see.
Visit our Privacy Policy to learn more. By continuing to use the site, you agree to this use of cookies and data.

Stündliche Wetter Catu

Heute, 16 Juli, Donnerstag

Zeit Temperatur Niederschläge Wind Luftdruck Luftfeuchtigkeit
00:00 +22°C° 0 mm 1 m/S 755 mmHg 97%
01:00 +22°C° 0.1 mm 1 m/S 755 mmHg 97%
02:00 +22°C° 0.1 mm 1 m/S 755 mmHg 97%
03:00 +21°C° 0 mm 2 m/S 754 mmHg 97%
04:00 +21°C° 0.1 mm 2 m/S 754 mmHg 97%
05:00 +22°C° 0.1 mm 1 m/S 755 mmHg 97%
06:00 +22°C° 0.1 mm 1 m/S 755 mmHg 97%
07:00 +23°C° 0.3 mm 2 m/S 755 mmHg 92%
08:00 +25°C° 0.3 mm 3 m/S 756 mmHg 86%
09:00 +26°C° 0.3 mm 4 m/S 756 mmHg 81%
10:00 +27°C° 0 mm 4 m/S 756 mmHg 74%
11:00 +28°C° 0 mm 4 m/S 756 mmHg 67%
12:00 +29°C° 0 mm 4 m/S 756 mmHg 60%
13:00 +28°C° 0 mm 4 m/S 755 mmHg 60%
14:00 +28°C° 0 mm 4 m/S 755 mmHg 61%
15:00 +27°C° 0 mm 4 m/S 755 mmHg 61%
16:00 +26°C° 0 mm 4 m/S 755 mmHg 69%
17:00 +24°C° 0 mm 3 m/S 755 mmHg 77%
18:00 +21°C° 0 mm 2 m/S 755 mmHg 85%
19:00 +22°C° 0 mm 1 m/S 756 mmHg 88%
20:00 +21°C° 0 mm 1 m/S 756 mmHg 90%
21:00 +21°C° 0 mm 1 m/S 756 mmHg 93%
22:00 +21°C° 0 mm 1 m/S 756 mmHg 94%
23:00 +21°C° 0 mm 1 m/S 756 mmHg 94%

Morgen, 17 Juli, Freitag

Zeit Temperatur Niederschläge Wind Luftdruck Luftfeuchtigkeit
00:00 +21°C° 0 mm 1 m/S 756 mmHg 95%
01:00 +18°C° 0 mm 0 m/S 755 mmHg 96%
02:00 +18°C° 0 mm 0 m/S 755 mmHg 96%
03:00 +18°C° 0 mm 0 m/S 754 mmHg 96%
04:00 +18°C° 0 mm 0 m/S 754 mmHg 96%
05:00 +18°C° 0 mm 0 m/S 755 mmHg 96%
06:00 +18°C° 0 mm 0 m/S 755 mmHg 96%
07:00 +22°C° 0.1 mm 1 m/S 755 mmHg 90%
08:00 +24°C° 0.1 mm 1 m/S 756 mmHg 83%
09:00 +26°C° 0.1 mm 2 m/S 756 mmHg 77%
10:00 +27°C° 0.1 mm 2 m/S 756 mmHg 71%
11:00 +28°C° 0.1 mm 2 m/S 756 mmHg 65%
12:00 +29°C° 0.1 mm 3 m/S 755 mmHg 59%
13:00 +29°C° 0 mm 3 m/S 755 mmHg 59%
14:00 +29°C° 0 mm 3 m/S 755 mmHg 60%
15:00 +29°C° 0 mm 3 m/S 754 mmHg 60%
16:00 +27°C° 0 mm 3 m/S 754 mmHg 69%
17:00 +25°C° 0 mm 2 m/S 754 mmHg 79%
18:00 +23°C° 0 mm 1 m/S 755 mmHg 88%
19:00 +23°C° 0.1 mm 1 m/S 755 mmHg 90%
20:00 +22°C° 0.1 mm 1 m/S 755 mmHg 93%
21:00 +22°C° 0.1 mm 1 m/S 756 mmHg 95%
22:00 +22°C° 0.3 mm 1 m/S 756 mmHg 95%
23:00 +22°C° 0.3 mm 1 m/S 756 mmHg 96%

übermorgen, 18 Juli, Samstag

Zeit Temperatur Niederschläge Wind Luftdruck Luftfeuchtigkeit
00:00 +22°C° 0.3 mm 1 m/S 756 mmHg 96%
01:00 +22°C° 0.2 mm 1 m/S 755 mmHg 96%
02:00 +22°C° 0.2 mm 1 m/S 755 mmHg 96%
03:00 +21°C° 0.2 mm 1 m/S 755 mmHg 96%
04:00 +21°C° 0.2 mm 1 m/S 755 mmHg 96%
05:00 +21°C° 0.2 mm 1 m/S 755 mmHg 96%
06:00 +21°C° 0.2 mm 1 m/S 755 mmHg 97%
07:00 +21°C° 0.5 mm 2 m/S 755 mmHg 94%
08:00 +24°C° 0.5 mm 3 m/S 756 mmHg 91%
09:00 +25°C° 0.5 mm 3 m/S 756 mmHg 87%
10:00 +25°C° 0.8 mm 3 m/S 756 mmHg 87%
11:00 +25°C° 0.8 mm 4 m/S 756 mmHg 86%
12:00 +25°C° 0.8 mm 4 m/S 756 mmHg 86%
13:00 +25°C° 0.8 mm 3 m/S 755 mmHg 87%
14:00 +24°C° 0.8 mm 3 m/S 755 mmHg 89%
15:00 +24°C° 0.8 mm 3 m/S 754 mmHg 91%
16:00 +23°C° 0.2 mm 2 m/S 754 mmHg 92%
17:00 +23°C° 0.2 mm 2 m/S 754 mmHg 93%
18:00 +22°C° 0.2 mm 1 m/S 755 mmHg 94%
19:00 +22°C° 0 mm 1 m/S 755 mmHg 95%
20:00 +21°C° 0 mm 1 m/S 755 mmHg 96%
21:00 +21°C° 0 mm 1 m/S 755 mmHg 96%
22:00 +21°C° 0.1 mm 1 m/S 755 mmHg 96%
23:00 +21°C° 0.1 mm 1 m/S 755 mmHg 96%

19 Juli, Sonntag

Zeit Temperatur Niederschläge Wind Luftdruck Luftfeuchtigkeit
00:00 +21°C° 0.1 mm 1 m/S 755 mmHg 96%
01:00 +21°C° 0.1 mm 1 m/S 755 mmHg 96%
02:00 +21°C° 0.1 mm 1 m/S 754 mmHg 96%
03:00 +21°C° 0.1 mm 1 m/S 754 mmHg 96%
04:00 +21°C° 0 mm 1 m/S 754 mmHg 96%
05:00 +21°C° 0 mm 1 m/S 754 mmHg 96%
06:00 +21°C° 0 mm 1 m/S 754 mmHg 96%
07:00 +22°C° 0.4 mm 1 m/S 755 mmHg 94%
08:00 +23°C° 0.4 mm 2 m/S 755 mmHg 91%
09:00 +25°C° 0.4 mm 2 m/S 756 mmHg 89%
10:00 +25°C° 1.1 mm 3 m/S 756 mmHg 88%
11:00 +25°C° 1.1 mm 3 m/S 755 mmHg 88%
12:00 +25°C° 1.1 mm 3 m/S 755 mmHg 88%
13:00 +26°C° 0.4 mm 3 m/S 754 mmHg 84%
14:00 +26°C° 0.4 mm 3 m/S 754 mmHg 79%
15:00 +27°C° 0.4 mm 3 m/S 754 mmHg 75%
16:00 +25°C° 0 mm 3 m/S 754 mmHg 79%
17:00 +24°C° 0 mm 2 m/S 754 mmHg 82%
18:00 +23°C° 0 mm 2 m/S 754 mmHg 86%
19:00 +21°C° 0 mm 2 m/S 754 mmHg 88%
20:00 +22°C° 0 mm 1 m/S 755 mmHg 91%
21:00 +21°C° 0 mm 1 m/S 755 mmHg 93%
22:00 +21°C° 0 mm 1 m/S 755 mmHg 94%
23:00 +21°C° 0 mm 1 m/S 755 mmHg 94%

20 Juli, Montag

Zeit Temperatur Niederschläge Wind Luftdruck Luftfeuchtigkeit
00:00 +21°C° 0 mm 1 m/S 755 mmHg 94%
01:00 +21°C° 0 mm 1 m/S 754 mmHg 94%
02:00 +20°C° 0 mm 1 m/S 754 mmHg 94%
03:00 +20°C° 0 mm 1 m/S 754 mmHg 94%
04:00 +20°C° 0 mm 1 m/S 754 mmHg 94%
05:00 +20°C° 0 mm 1 m/S 754 mmHg 94%
06:00 +20°C° 0 mm 1 m/S 754 mmHg 95%
07:00 +21°C° 0 mm 2 m/S 755 mmHg 86%
08:00 +25°C° 0 mm 3 m/S 755 mmHg 77%
09:00 +27°C° 0 mm 4 m/S 755 mmHg 68%
10:00 +27°C° 0.1 mm 4 m/S 755 mmHg 67%
11:00 +28°C° 0.1 mm 4 m/S 755 mmHg 67%
12:00 +28°C° 0.1 mm 4 m/S 755 mmHg 67%
13:00 +27°C° 0.4 mm 4 m/S 754 mmHg 72%
14:00 +26°C° 0.4 mm 3 m/S 754 mmHg 78%
15:00 +25°C° 0.4 mm 3 m/S 753 mmHg 83%
16:00 +24°C° 0 mm 3 m/S 754 mmHg 86%
17:00 +23°C° 0 mm 2 m/S 754 mmHg 88%
18:00 +22°C° 0 mm 1 m/S 754 mmHg 91%
19:00 +22°C° 0.1 mm 1 m/S 755 mmHg 93%
20:00 +22°C° 0.1 mm 1 m/S 755 mmHg 94%
21:00 +21°C° 0.1 mm 1 m/S 755 mmHg 96%
22:00 +21°C° 0.2 mm 1 m/S 755 mmHg 96%
23:00 +21°C° 0.2 mm 1 m/S 755 mmHg 96%

21 Juli, Dienstag

Zeit Temperatur Niederschläge Wind Luftdruck Luftfeuchtigkeit
00:00 +21°C° 0.2 mm 1 m/S 755 mmHg 96%
01:00 +21°C° 0 mm 1 m/S 754 mmHg 96%
02:00 +21°C° 0 mm 1 m/S 754 mmHg 96%
03:00 +21°C° 0 mm 1 m/S 754 mmHg 96%
04:00 +19°C° 0 mm 0 m/S 754 mmHg 96%
05:00 +18°C° 0 mm 0 m/S 754 mmHg 96%
06:00 +18°C° 0 mm 0 m/S 754 mmHg 96%
07:00 +22°C° 0.1 mm 1 m/S 754 mmHg 91%
08:00 +24°C° 0.1 mm 2 m/S 755 mmHg 85%
09:00 +26°C° 0.1 mm 3 m/S 755 mmHg 80%
10:00 +27°C° 0.1 mm 3 m/S 755 mmHg 73%
11:00 +28°C° 0.1 mm 3 m/S 755 mmHg 65%
12:00 +29°C° 0.1 mm 4 m/S 754 mmHg 58%
13:00 +29°C° 0 mm 4 m/S 754 mmHg 59%
14:00 +29°C° 0 mm 4 m/S 754 mmHg 60%
15:00 +28°C° 0 mm 3 m/S 753 mmHg 62%
16:00 +27°C° 0 mm 3 m/S 753 mmHg 71%
17:00 +25°C° 0 mm 2 m/S 753 mmHg 80%
18:00 +23°C° 0 mm 1 m/S 754 mmHg 90%
19:00 +23°C° 0.1 mm 1 m/S 754 mmHg 92%
20:00 +22°C° 0.1 mm 1 m/S 754 mmHg 95%
21:00 +22°C° 0.1 mm 1 m/S 755 mmHg 97%
22:00 +22°C° 0.4 mm 1 m/S 754 mmHg 97%
23:00 +22°C° 0.4 mm 1 m/S 754 mmHg 97%
Mehr zeigen